www.pogodaiklimat.ru

Погода и климат >> Архив погоды >> Канада >> Baker Lake Airport


ПОГОДА в Baker Lake Airport

  • Прогноз погоды в Baker Lake Airport
  • Монитор погоды в Baker Lake Airport
  • Климат города

АРХИВ ПОГОДЫ в Baker Lake Airport

Время (UTC), дата Ветер
(напр.,м/с)
 
Видим.   Явления Облачность Т
(С)
Тd
(С)
f
(%)
Тe
(С)
Тes
(С)
Комфортность P
(гПа)
Po
(гПа)
Тmin
(С)
Tmax
(С)
R
(мм)
R24
(мм)
S
(см)
09 13.06 ЮВ 6 40 км 6/6 300 м
[]
+0.5 -0.6 92 -6 -6 1021.2 1018.8
12 13.06 В 8 40 км 1/1 1500 м
[Sc]
+1.4 -0.4 88 -6 -5 1022.3 1019.9 +0.2 +5.5 7
15 13.06 В 5 30 км ясно +4.4 +1.0 79 -0 +4 1022.8 1020.4
18 13.06 В 5 30 км 3/0
[Ac As Ci fib]
+6.2 +2.1 75 +2 +8 1022.4 1020.0 +0.2 +6.4
21 13.06 В 5 30 км 1/0
[]
+5.7 +1.9 77 +1 +6 1022.5 1020.1
00 14.06 В 5 30 км 1/0
[Ac As]
+5.0 +1.1 76 +1 +3 1022.2 1019.8 +0.2 +6.6
03 14.06 С 1 30 км ясно +3.2 0.0 80 +3 +3 1021.9 1019.5
06 14.06 В 2 30 км 1/0
[Ac trans]
+1.6 -0.6 85 -1 -1 1022.1 1019.7 +0.2 +6.6 12
09 14.06 В 1 30 км 8/0
[]
+1.3 -1.0 85 -1 -1 1021.7 1019.3
12 14.06 ЮВ 2 30 км 5/0
[Ac trans Ci fib]
+0.6 -1.3 87 -2 -1 1021.3 1018.9 +0.6 +6.6 5
15 14.06 В 3 30 км 1/0
[]
+4.1 -0.2 74 +1 +8 1020.2 1017.8
18 14.06 В 3 30 км 1/0
[Ac As]
+7.0 0.0 61 +4 +14 опасность
простуды
1019.1 1016.7 +0.4 +7.3
21 14.06 В 4 30 км 3/0
[]
+8.2 +0.8 60 +5 +11 1017.5 1015.1
00 15.06 В 4 30 км ясно +7.5 +0.2 60 +4 +7 1016.2 1013.8 +0.4 +9.2
03 15.06 С 1 30 км ясно +5.5 -0.7 64 +6 +6 1015.8 1013.4
06 15.06 С 1 30 км ясно +3.9 0.0 76 +4 +4 1015.2 1012.8 +0.4 +9.2
09 15.06 С 1 30 км ясно +2.3 0.0 85 +2 +2 1014.5 1012.1
12 15.06 В 2 30 км 1/0
[Ac trans Ci fib]
+2.7 -0.5 79 0 +3 1014.9 1012.5 +1.0 +9.2 3
15 15.06 В 3 40 км ясно +5.1 +0.2 71 +2 +9 1013.9 1011.5
18 15.06 В 5 40 км 1/0
[Ac As Ci sp]
+7.5 +0.1 59 +4 +10 1012.9 1010.6 +1.0 +7.5
21 15.06 В 6 40 км 1/0
[]
+8.6 +0.9 58 +5 +9 1012.0 1009.7
00 16.06 В 5 40 км 9/0
[Ci sp]
+7.8 +0.6 60 +5 +6 1011.6 1009.3 +1.0 +9.1
03 16.06 С 1 24 км 9/0
[]
+7.3 -0.4 58 +8 +8 1011.4 1009.1
06 16.06 С 1 24 км 6/0
[Ac trans Cc]
+5.5 +0.6 71 +5 +5 1011.1 1008.8 +1.0 +9.1 19
09 16.06 С 2 24 км 8/0
[]
+4.3 +0.9 79 +2 +2 1010.9 1008.6
12 16.06 В 2 24 км 9 баллов +4.1 -0.3 73 +2 +2 1011.1 1008.8 +3.0 +9.1
15 16.06 ЮВ 1 24 км 10/10 1000 м
[]
+3.8 +0.9 81 +2 +2 1011.4 1009.1
18 16.06 С 1 24 км слабый дождь 10/0 2000 м
[Ac As]
+7.0 +4.7 85 +6 +10 1011.4 1009.1 +3.0 +7.1 0.0
21 16.06 С 3 30 км 10/10 1000 м
[]
+7.7 +6.5 92 +5 +5 1011.6 1009.3
00 17.06 С 3 24 км слабый дождь 10/0 2000 м
[Ac As]
+7.8 +6.2 90 +5 +6 1012.0 1009.7 +3.0 +8.0 0.0 14
03 17.06 СЗ 3 24 км 10/10 1000 м
[]
+6.9 +5.5 91 +4 +4 1011.8 1009.5
06 17.06 СЗ 5 24 км слабый дождь {туман} 6/6 600 м
[Sc Ac trans]
+6.3 +5.6 95 +2 +2 1011.2 1008.9 +3.0 +8.0 6
09 17.06 СЗ 4 24 км 5/5 1500 м
[]
+5.5 +4.6 94 +1 +1 1010.6 1008.3
12 17.06 ЮВ 1 24 км {дождь, туман} 3/0
[Ac trans Ci sp]
+6.6 +5.2 91 +5 +8 1010.9 1008.6 +3.8 +8.0 0.4
15 17.06 В 2 40 км ясно +8.6 +6.2 85 +7 +16 опасность
простуды
1009.9 1007.6
18 17.06 В 2 40 км ясно +9.8 +5.9 77 +9 +22 опасность
простуды
1008.6 1006.3 +3.8 +10.9
21 17.06 З 6 40 км 9/9 1000 м
[]
+21.5 +9.9 48 +23 +23 комфорт 1007.2 1004.9
00 18.06 З 4 40 км 9/1 1500 м
[Cu hum Ac As Ci sp]
+20.2 +10.4 53 +22 +23 комфорт 1006.9 1004.6 +3.8 +22.7
03 18.06 С 6 30 км 9/0
[]
+11.5 +7.6 77 +9 +9 1007.9 1005.6
06 18.06 С 7 30 км слабый дождь 10/8 1500 м
[Sc Ac trans]
+7.7 +4.8 82 +3 +3 1009.8 1007.5 +3.8 +22.7 0.0 1
09 18.06 С 5 30 км 10/10 1000 м
[]
+4.1 +2.4 89 -1 -1 1012.1 1009.8
12 18.06 С 8 30 км {дождь} 4/3 600 м
[Sc Ac trans Ci fib]
+5.3 +2.3 81 -1 -0 1012.3 1010.0 +4.0 +22.7 3 <0.5
15 18.06 С 7 40 км 9/9 1500 м
[]
+6.6 +1.8 71 +2 +2 1013.7 1011.4
18 18.06 СЗ 8 40 км 8/8 600 м
[Sc]
+9.3 +1.2 57 +5 +6 1014.6 1012.3 +4.0 +9.4 <0.5
21 18.06 СЗ 7 40 км 10/10 1000 м
[]
+9.3 +1.2 57 +6 +6 1015.0 1012.6
00 19.06 СЗ 6 40 км 5/5 600 м
[Sc]
+10.1 +0.6 52 +7 +8 1014.9 1012.6 +4.0 +10.1 <0.5
03 19.06 С 6 30 км 8/8 600 м
[]
+5.8 +2.7 80 +1 +1 1015.5 1013.1
06 19.06 СЗ 6 30 км пыль {морось} 5/5 600 м
[Sc]
+2.3 +0.4 87 -4 -4 1016.9 1014.5 +1.9 +10.1 0.0 131
09 19.06 ЮЗ 3 30 км ясно +0.8 -0.8 89 -3 -3 1017.9 1015.5
12 19.06 З 4 30 км ясно +4.2 +0.4 76 0 +2 1018.5 1016.1 +0.1 +10.1
15 19.06 З 3 40 км 3/3 600 м
[]
+8.9 +1.7 61 +7 +11 1017.4 1015.0
18 19.06 ЮЗ 2 40 км 9/9 1000 м
[Sc Ac trans Cc]
+12.4 +2.3 50 +12 +13 1016.1 1013.8 +0.1 +12.7 <0.5
21 19.06 В 2 40 км 5/5 1500 м
[]
+8.3 +3.4 71 +7 +12 1014.6 1012.2
00 20.06 ЮЗ 5 40 км 8/8 1500 м
[Sc diur, vesp Ac trans Cc]
+16.9 +3.0 39 +16 +17 1013.3 1011.0 +0.1 +17.5 <0.5
03 20.06 С 1 30 км 9/9 1500 м
[]
+7.7 +2.2 68 +8 +8 1012.1 1009.8

 

Местоположение метеостанции Baker Lake Airport (Канада): широта 64.30 долгота -96.06 высота над уровнем моря 18 м.

В архиве по умолчанию представлена погода в Baker Lake Airport за последнюю неделю. Архивные данные за месяц целиком и за предыдущие месяцы, начиная с января 2011 года, Вы можете получить, выбрав интересующий диапазон дат из раскрывающегося списка и нажав кнопку "Ввод!".


*Определитесь, кто Вы:
робот инопланетянин человек

Внимание! Время в таблицах - всемирное. Для получения местного времени необходимо прибавить поправку, которая в Baker Lake Airport равна -6 ч.

Смотрите также архив погоды в соседних городах и на ближайших метеорологических станциях:

Погода в Baker Lake Climate (Канада) (4 км)
Погода в Back River MAPS (Канада) (199 км)
Погода в Rankin Inlet (Канада) (256 км)
Погода в Dubawnt Lake (Канада) (302 км)
Погода в Robertson Lake (Канада) (314 км)
Погода в Wager Bay (Канада) (357 км)
Погода в Arviat Climate (Канада) (370 км)
Погода в Arviat (Канада) (370 км)
Погода в Arviat Airport (Канада) (371 км)
Погода в Hanbury River ARS (Канада) (451 км)

Пояснения к столбцам:

Ветер - указаны скорость ветра в м/с - средняя за 10 мин, порывы в срок и между сроками (в фигурных скобках) и направление, откуда дует ветер: С - северный, СВ - северо-восточный, В - восточный, ЮВ - юго-восточный, Ю - южный, ЮЗ - юго-западный, З - западный, СЗ - северо-западный.
Видимость - горизонтальная дальность видимости в метрах или километрах. При видимости от 1 до 10 км при отсутствии осадков обычно наблюдается дымка, при ухудшении видимости до 1 км и менее - туман. В сухую погоду видимость может ухудшаться дымом, пылью или мглою.
Явления - указаны атмосферные явления, наблюдавшиеся в срок или в последний час перед сроком; фигурными скобками обозначены явления, наблюдавшиеся между сроками (за 1-3 часа до срока); квадратными скобками обозначены град или гололедные отложения с указанием их диаметра в мм.
Облачность - указаны через наклонную черту общая и нижняя облачность в баллах и высота нижней границы облаков в метрах; квадратными скобками обозначены формы облаков: Ci - перистые, Cs - перисто-слоистые, Cc - перисто-кучевые, Ac - высококучевые, As - высокослоистые, Sc - слоисто-кучевые, Ns - слоисто-дождевые, Cu - кучевые, Cb - кучево-дождевые. Подробнее классификацию облаков см. в Атласе облаков (PDF).
T - Температура воздуха - температура, измеренная на высоте 2 м над землей.
Td - Температура точки росы - температура, при понижении до которой содержащийся в воздухе водяной пар достигнет насыщения.
f - Относительная влажность воздуха - влажноcть воздуха, измеренная на высоте 2 м над землей.
Te - Эффективная температура - температура, которую ощущает одетый по сезону человек в тени. Характеристика душности погоды. При расчете учитывается влияние влажности воздуха и скорости ветра на теплоощущения человека.
Tes - Эффективная температура на солнце - температура, которую ощущает человек, с поправкой на солнечный нагрев. Характеристика знойности погоды. Зависит от высоты солнца над горизонтом, облачности и скорости ветра. Ночью, в пасмурную погоду, а также при ветре 12 м/с и более поправка равна нулю.
P - Атмосферное давление - приведенное к уровню моря атмосферное давление.
Po - Атмосферное давление - измеренное на уровне метеостанции атмосферное давление.
Tmin - Минимальная температура - минимум температуры воздуха на высоте 2 м над землей.
Tmax - Максимальная температура - максимум температуры воздуха на высоте 2 м над землей.
R - Количество осадков - Количество выпавших осадков за период времени, мм. При наведении курсора мыши на число - период времени, за который выпало указанное количество осадков.
R24 - Количество осадков - Количество выпавших осадков за 24 часа, мм.
S - Снежный покров - Высота снежного покрова, см. При наведении курсора мыши на число - состояние снежного покрова и степень покрытия местности в баллах.